Location: Unspecified
(0.0000°N, 0.0000°E)
Time: 11:09:59
(UTC+00:00)

LilacSat-2 - Visible Passes

Search period start: 15 December 2019 00:00
Search period end: 25 December 2019 00:00
Orbit: 514 x 534 km, 97.5° (Epoch: 15 December)

Date Brightness Start Highest point End Pass type
(mag) Time Alt. Az. Time Alt. Az. Time Alt. Az.
15 Dec ? 04:46:15 10° ENE 04:48:51 18° ESE 04:51:27 10° SE visible
16 Dec ? 04:35:25 10° E 04:36:42 11° ESE 04:37:58 10° ESE visible
19 Dec ? 05:30:18 10° N 05:34:07 84° WNW 05:37:56 10° SSW visible
20 Dec ? 05:18:10 10° NNE 05:21:57 59° ESE 05:25:42 10° S visible
21 Dec ? 05:06:14 10° NNE 05:09:46 36° E 05:13:18 10° S visible
22 Dec ? 04:54:30 10° NE 04:57:35 24° E 05:00:40 10° SSE visible
22 Dec ? 18:23:51 10° SW 18:25:26 12° WSW 18:27:02 10° WNW visible
23 Dec ? 04:43:06 10° ENE 04:45:25 15° ESE 04:47:43 10° SE visible
